This demonstration page uses our WeatherBlox Daily Observations layout. Learn more.

38.89511, -77.03637

Hourly Observations for February 15, 2015

Temp ( °F °C ) Dew Point ( °F °C ) Humidity (%) Winds ( mph kmh ) Pressure ( in mb ) Visibility ( mi km ) Precip ( " mm )
12:52 am 00:52 Mostly Clear 16 -9 -8 -22 34 34 NNW 31 50 29.88 1012 10 16.09344 0 0
1:52 am 01:52 Mostly Clear 16 -9 -8 -22 34 34 NW 18 30 29.94 1014 10 16.09344 0 0
2:52 am 02:52 Partly Cloudy 14 -10 -9 -23 34 34 NW 30 48 29.94 1014 10 16.09344 0 0
3:52 am 03:52 Partly Cloudy 14 -10 -9 -23 34 34 WNW 30 48 29.94 1014 10 16.09344 0 0
4:52 am 04:52 Cloudy 12 -11 -9 -23 37 37 WNW 23 37 30 1016 10 16.09344 0 0
5:52 am 05:52 Partly Cloudy 12 -11 -9 -23 37 37 NW 22 35 30.03 1017 10 16.09344 0 0
6:52 am 06:52 Mostly Clear 10 -12 -11 -24 36 36 NW 26 43 30.06 1018 10 16.09344 0 0
7:52 am 07:52 Mostly Sunny 10 -12 -11 -24 36 36 NW 18 30 30.09 1019 10 16.09344 0 0
8:52 am 08:52 Mostly Sunny 12 -11 -9 -23 37 37 NW 23 37 30.12 1020 10 16.09344 0 0
9:52 am 09:52 Mostly Sunny 14 -10 -9 -23 34 34 WNW 29 46 30.15 1021 10 16.09344 0 0
10:52 am 10:52 Sunny 18 -8 -8 -22 32 32 WNW 21 33 30.15 1021 10 16.09344 0 0
11:52 am 11:52 Sunny 19 -7 -8 -22 29 29 NW 25 41 30.15 1021 10 16.09344 0 0
12:52 pm 12:52 Sunny 19 -7 -8 -22 29 29 NW 23 37 30.15 1021 10 16.09344 0 0
1:52 pm 13:52 Sunny 19 -7 -9 -23 27 27 NW 24 39 30.15 1021 10 16.09344 0 0
2:52 pm 14:52 Sunny 21 -6 -8 -22 27 27 NW 17 28 30.18 1022 10 16.09344 0 0
3:52 pm 15:52 Mostly Sunny 21 -6 -8 -22 27 27 NNW 24 39 30.21 1023 10 16.09344 0 0
4:52 pm 16:52 Sunny 19 -7 -8 -22 29 29 NNW 18 30 30.24 1024 10 16.09344 0 0
5:52 pm 17:52 Clear 19 -7 -8 -22 29 29 NW 13 20 30.27 1025 10 16.09344 0 0
6:52 pm 18:52 Clear 18 -8 -8 -22 32 32 NW 15 24 30.3 1026 10 16.09344 0 0
7:52 pm 19:52 Clear 18 -8 -8 -22 32 32 NW 18 30 30.33 1027 10 16.09344 0 0
8:52 pm 20:52 Clear 16 -9 -9 -23 31 31 NW 18 30 30.33 1027 10 16.09344 0 0
9:52 pm 21:52 Clear 14 -10 -9 -23 34 34 WNW 16 26 30.33 1027 10 16.09344 0 0
10:52 pm 22:52 Clear 12 -11 -9 -23 37 37 NW 18 30 30.33 1027 10 16.09344 0 0
11:52 pm 23:52 Clear 12 -11 -9 -23 37 37 WNW 20 31 30.36 1028 10 16.09344 0 0

Powered by AerisWeather